Tracking 19193 objects as of 24-Jun-2018
HD Live streaming from Space Station
objects crossing your sky now

COSMOS 2345

Track COSMOS 2345 now!
COSMOS 2345 is classified as:


NORAD ID: 24894
Int'l Code: 1997-041A
Perigee: 35,108.6 km
Apogee: 36,512.8 km
Inclination: 13.8 °
Period: 1,437.0 minutes
Semi major axis: 42181 km
RCS: 5.0119 m2 (large)
Launch date: August 14, 1997
Source: Commonwealth of Independent States (former USSR) (CIS)
Launch site: TYURATAM MISSILE AND SPACE COMPLEX (TTMTR)
aabbcc
Your satellite tracking list
Your tracking list is empty




NASA's NSSDC Master Catalog

Two Line Element Set (TLE):
1 24894U 97041A   18174.75912010 -.00000015  00000-0  00000+0 0  9990
2 24894  13.8489  21.5945 0166446 227.7757 127.6860  1.00211310 76408
Source of the keplerian elements: AFSPC